Tracking 29933 objects as of 2-Dec-2024
HD Live streaming from Space Station
objects crossing your sky now

STARLINK-30265

Track STARLINK-30265 now!
10-day predictions
STARLINK-30265 is classified as:


NORAD ID: 57646
Int'l Code: 2023-122Q
Perigee: 565.5 km
Apogee: 566.9 km
Inclination: 43.0 °
Period: 95.8 minutes
Semi major axis: 6937 km
RCS: Unknown
Launch date: August 17, 2023
Source: United States (US)
Launch site: AIR FORCE EASTERN TEST RANGE (AFETR)
Your satellite tracking list
Your tracking list is empty




NASA's NSSDC Master Catalog

Two Line Element Set (TLE):
1 57646U 23122Q   24336.75085329  .00000381  00000-0  43309-4 0  9990
2 57646  43.0015  90.1314 0001019 273.3072  86.7654 15.02529124 72541
Source of the keplerian elements: AFSPC